Погода в Покрове-Чичерине

Россия / Тамбовская область     52°38′33″N   40°22′15″E
темп.,
°C
ветер,
м/с
пор.,
м/с
влажн.,
%
обл.,
%
осадки,
мм/ч
давл.,
гПа
погр.,
м
5 марта, пт
пт500:000з3699100 0.4 1001304
03:00−1з51093100 0.8 1002438
06:00−3зсз499599 0.1 1004334
09:00−4сз379487 0.1 1007308
12:00−1сз248539 0.0 1010639
15:00−1зсз358568 0.1 1012706
18:00−4з338880 0.0 101333
21:00−6зсз239155 0.0 101523
6 марта, сб
сб600:00−7зсз229458 0.0 101624
03:00−8сз119479 0.0 101721
06:00−9с1195100 0.0 101621
09:00−7вюв1195100 0.0 101751
12:00−5вюв1190100 0.0 1017248
15:00−4вюв1190100 0.1 1015270
18:00−5св2297100 1.8 1015111
21:00−8ссз359598 2.3 1016115
7 марта, вс
вс700:00−10зсз339581 0.0 101747
03:00−11з469240 0.0 1017114
06:00−12юз49920 0.0 1016164
09:00−8юз6148718 0.0 1014467
12:00−4юз91577100 0.0 10101055
15:00−3юз101887100 0.1 10041261
18:00−2зюз101892100 1.2 10021210
21:00−8з41078100 2.2 1004197
8 марта, пн
пн800:00−10зюз511810 0.0 1005243
03:00−10юз512823 0.0 1005259
06:00−7юз6138081 0.0 1002465
09:00−5юз6109591 0.6 1000540
12:00−4зсз81178100 0.3 10011375
15:00−7зсз9137169 0.4 10041445
18:00−8з6137996 0.1 1007648
21:00−10з5128459 0.1 1010332
9 марта, вт
вт900:00−11з49910 0.0 1011192
03:00−13з35940 0.0 101289
06:00−14зюз33962 0.0 101339
09:00−11з239449 0.1 1014176
12:00−8сз348799 0.1 1014553
15:00−8ссз4584100 0.2 1015729
18:00−11сз4888100 0.1 1015396
21:00−15сз349374 0.1 101889